Regional Weather Roundup
Issued by NWS Wakefield, VA

Home | Current Version | Previous Version | Graphics & Text | Print | Product List | Glossary On
Versions: 1 2 3 4 5 6 7 8 9 10 11 12 13 14 15 16 17 18 19 20 21 22 23 24 25 26 27
000
ASUS41 KAKQ 161215
RWRAKQ

REGIONAL WEATHER ROUNDUP
NATIONAL WEATHER SERVICE WAKEFIELD VA
800 AM EDT WED AUG 16 2017

Note: "fair" indicates few or no clouds below 12,000 feet with no
significant weather and/or obstructions to visibility. * = Denotes
station may not report precipitation (e.g., rain,snow,etc.),
thunder or fog.

VAZ042-051-052>054-056-161300-
NORTHERN VIRGINIA

CITY           SKY/WX    TMP DP  RH WIND       PRES   REMARKS
WASH NATIONAL  PTSUNNY   75  74  96 CALM      30.00R FOG
DULLES         MOSUNNY   71  71 100 CALM      30.01R FOG
FORT BELVOIR   FOG       72  71  98 CALM      30.00R VSB<1/4
QUANTICO       CLOUDY    73  72  96 NW3       30.02R FOG
FREDERICKSBRG* CLOUDY    71  71 100 CALM      30.01R FOG
STAFFORD*      CLOUDY    69  69 100 CALM      30.05R FOG
WARRENTON      MOSUNNY   70  67  91 CALM      30.01R
CULPEPER*      SUNNY     70  70 100 CALM      30.02R
MANASSAS*      FOG       68  68 100 CALM      30.01R VSB 1/4
LEESBURG*      SUNNY     70  70 100 CALM      30.02R
WINCHESTER     FOG       68  68 100 W5        30.03S VSB 3/4
FRONT ROYAL*   CLOUDY    70  70 100 S3        30.03R VSB 1/2
LURAY*         FOG       70  70 100 CALM      30.05S VSB<1/4
$$

VAZ048-049-060>072-079>083-161300-
CENTRAL AND SOUTH CENTRAL VIRGINIA

CITY           SKY/WX    TMP DP  RH WIND       PRES   REMARKS
RICHMOND       CLOUDY    74  74 100 N6        30.00R FOG
CHESTERFIELD*  CLOUDY    75  73  93 NW5       30.02R
PETERSBURG*    CLOUDY    74  74 100 NW3       30.01R FOG
HANOVER        CLOUDY    72  70  93 CALM      30.02R FOG
TAPPAHANNOCK*  CLOUDY   N/A N/A N/A N3        30.00S HAZE
QUINTON*       CLOUDY    73  73 100 CALM      29.99R FOG
CHARLOTTSVILLE SUNNY     73  72  96 CALM      30.02R
GORDONSVILLE*  SUNNY     70  70 100 CALM      30.01S
ORANGE*        SUNNY     70  70 100 CALM      30.01S
LOUISA*        FOG       70  70 100 CALM      30.01S VSB 1/2
BUMPASS*       CLOUDY    72  72 100 CALM      30.02R VSB 1/4
FARMVILLE*     CLOUDY    75  73  94 CALM      30.01S FOG
CREWE*         CLOUDY    73  69  87 CALM      30.02R VSB 1
FORT PICKETT*  CLOUDY   N/A N/A N/A N3        30.02R
CHASE CITY*    CLOUDY    73  72  99 CALM      30.04R VSB 1
CLARKSVILLE*   CLOUDY    72  72 100 CALM      30.02R
SOUTH HILL*    CLOUDY    72  72 100 N5        30.08R
LAWRENCEVILLE* CLOUDY    73  72  97 CALM      30.02R
EMPORIA*       CLOUDY    73  73 100 CALM      30.02R
$$

VAZ088>098-161300-
SOUTHEAST VIRGINIA

CITY           SKY/WX    TMP DP  RH WIND       PRES   REMARKS
NORFOLK        PTSUNNY   79  77  94 VRB6      29.97R
VIRGINIA BEACH PTSUNNY   77  75  93 N7        29.96R
NORFOLK NAVAL  PTSUNNY   78  75  90 N7        29.98R
WEST POINT*    CLOUDY    73  72  99 CALM      30.00R VSB 1
SALUDA*        CLOUDY    74  74 100 N5        29.98R
NEWPORT NEWS   CLOUDY    77  74  90 N7        29.97R
LANGLEY AFB    CLOUDY    76  76  99 N8        29.97R
FORT EUSTIS    CLOUDY    77  74  89 N5        29.96R
WILLIAMSBURG*  MOSUNNY   75  75 100 CALM      29.99R
HR EXEC AP*    FAIR      75  73  94 CALM      29.95R
FRANKLIN*      PTSUNNY   74  73  95 NW3       29.98S
US460-WAKEFLD  CLOUDY    75  75 100 VRB3      29.99R FOG
$$

VAZ020-022-025-037-045-161300-
WEST CENTRAL AND SOUTHWEST VIRGINIA

CITY           SKY/WX    TMP DP  RH WIND       PRES   REMARKS
STAUNTON*      FOG       68  68 100 SW3       30.09R VSB 1/2
WAYNESBORO*    CLOUDY    68  68 100 CALM      30.08R VSB<1/4
HOT SPRINGS VA MOSUNNY   64  64 100 CALM      30.21R
LYNCHBURG      SUNNY     70  70 100 CALM      30.05R
DANVILLE       SUNNY     74  73  97 CALM      30.04R
SOUTH BOSTON*  CLOUDY    73  71  95 NE3       30.03R VSB 1/4
MARTINSVILLE   SUNNY     70  69  97 CALM      30.08R
ROANOKE        SUNNY     72  68  87 N3        30.10R
BLACKSBURG     FOG       66  65  97 CALM      30.15R VSB<1/4
DUBLIN*        FOG       66  64  91 CALM      30.15R VSB<1/4
MARION*        HAZE      69  65  86 NW3       30.18R VSB 1/4
HILLSVILLE*    FOG       65  62  87 CALM      30.15R VSB 3/4
RICHLANDS*     FOG       66  62  87 CALM      30.17R VSB<1/4
WISE*          SUNNY     70  70 100 CALM      30.17R
ABINGDON*      CLOUDY    71  71 100 CALM      30.14R
$$

MDZ021>025-VAZ099-100-161300-
SOUTHERN MARYLAND AND THE DELMARVA PENINSULA

CITY           SKY/WX    TMP DP  RH WIND       PRES   REMARKS
PATUXENT RIVER PTSUNNY   75  74  96 N7        29.98R
BAY BRIDGE APT MOSUNNY   75  72  88 CALM      29.98S FOG
LEONARDTOWN    PTSUNNY   72  72 100 CALM      30.00S
DOVER          PTSUNNY   72  72 100 NW5       29.96S
GEORGETOWN     CLOUDY    74  71  91 VRB3      29.98R
EASTON         PTSUNNY   73  72  94 CALM      30.02R FOG
CAMBRIDGE      MOSUNNY   75  72  88 N5        29.98R
SALISBURY      CLOUDY    73  73 100 NW8       29.98R
OCEAN CITY     CLOUDY    74  73  97 N9        29.97R FOG
WALLOPS ISLAND CLOUDY    73  73 100 NW8       29.97R
ACCOMACK*        N/A    N/A N/A N/A MISG        N/A
$$

NCZ012>017-030>032-161300-
NORTH CENTRAL AND EASTERN NORTH CAROLINA

CITY           SKY/WX    TMP DP  RH WIND       PRES   REMARKS
ROANOKE RAPIDS CLOUDY    72  72 100 N5        30.00R FOG
RALEIGH        MOSUNNY   77  75  93 NE3       30.02R
ELIZABETH CITY CLOUDY    77  77 100 NW6       29.97R
AHOSKIE*         N/A     74  73  97 CALM      29.98S
EDENTON*       CLOUDY    77  75  94 CALM      29.97R FOG
CURRITUCK*     MOSUNNY   78  69  75 N5        29.97R
KILL DEVIL HLS SUNNY     77  76  98 CALM      29.94R
MANTEO         SUNNY     78  74  88 NE8       29.95R
CAPE HATTERAS  MOSUNNY   81  78  91 VRB3      29.95R
TARBORO*       NOT AVBL
GOLDSBORO      MOSUNNY   77  73  88 NW3       29.98R
WASHINGTON     CLOUDY    76  75  96 N3        29.98R
GREENVILLE     CLOUDY    77  77 100 N3        30.00R FOG
NEW BERN       CLOUDY    76  76 100 N7        29.99R FOG
WILMINGTON     SUNNY     79  76  90 NW6       29.97R
$$

VAZ048-161300-
ELSEWHERE

CITY           SKY/WX    TMP DP  RH WIND       PRES   REMARKS
HARRISBURG PA  FOG       69  69 100 NW7       29.99S VSB 1/4
BALTIMORE      FOG       70  70 100 W3        29.99R VSB 1/4
ANNAPOLIS      FOG       74  74 100 CALM      29.98F VSB 1
ANDREWS AFB    FOG       72  72 100 NW3       29.99R VSB 1/2
PHILADELPHIA   MOSUNNY   73  69  87 NW6       29.98R FOG
HENDERSON NC   CLOUDY    71  70  98 CALM      30.03R FOG
GREENSBORO     MOSUNNY   74  73  97 NE5       30.05R
ROCKY MOUNT    PTSUNNY   74  74 100 N6        30.00R
$$

VAZ100-161300-
MARINE

STATION/POSITION TIME  TEMP    WIND        PRES    WAVE   SWELL
                       AIR SEA DIR/SP/G            HT/PER HT/PER
                 (UTC) (F)     (DEG/KT/KT) (MB)    (FT/S) (FT/S)
BRANDYWINE LGT   1142   74     350/ 11/ 12 1015.2R
CAPE MAY NJ      1136   75 76  340/  7/ 10 1014.2R
LEWES DE         1142   75 76  360/  9/ 10 1014.5R
15NM E FENWICK I 1150   76 76  330/ 10/ 12 1014.8R   4/12   3/12
OCEAN-CITY-INLET 1142   74 77   10/  9/ 10 1015.1R
WACHAPREAGUE VA  1142   75 80  340/  4/  7 1014.6R
THOMAS POINT MD  1200   72 79  300/  4/  4   N/A
GOOSES REEF MD   1200   77 78   60/  6/  6 1016.0    0
COVE POINT MD    1142   75      20/  8/  9 1015.9R
SOLOMONS ISLAND  1142   75 80  340/  3/  4   N/A
BISHOPS HEAD MD  1142   74 79  360/  7/  9 1015.3R
PINEY POINT MD   1142           30/  5/  6   N/A
POTOMAC MD       1200   77 80   20/  8/ 12 1014.4    1
CAMBRIDGE MD     1142   78 80              1016.0R
LEWISETTA VA     1142   76 80  360/  4/  5 1015.2R
RAPPAHANNOCK LGT 1142          350/ 13/ 14 1015.4R
STINGRAY PT      1150   77      10/  8/ 12 1015.3R
YORK RVR RNG VA  1142   77     360/ 12/ 14 1015.2R
YORKTOWN VA      1142   75 80  340/  9/ 10 1014.7R
JAMESTOWN VA     1200      82  350/  6/  8   N/A
DOMINION TERM VA 1142   77      10/  6/  9 1014.7R
KIPTOPEKE VA     1142      78   10/  5/  6   N/A
CHES BAY BRIDGE  1142   78 78  360/ 12/ 13 1014.5R
CAPE HENRY VA    1142   77     330/  7/  9   N/A
WILLOUBY STN VA  1142   76     360/ 11/ 12 1014.6R
S CRANEY ISL VA  1142   77     360/  9/ 11 1014.5R
CAPE HENRY BUOY  1130      77                N/A     3/13   2/13
1ST LANDING BUOY 1200   78 77              1014.8    2/ 3
64NM E OF VA BCH 1150   77 78   10/  6/  6 1014.5R   5/10   5/10
DUCK PIER NC     1142   78 78   10/  7/  7 1013.9R
44100 DUCK FRF   1105      78                N/A     3/11   2/11
44056 DUCK FRF   1100      78                N/A     3/12   2/12
OREGON INLET NC  1142   78 81   10/  7/  9 1013.9R
HATTERAS NC      1142   80 83  360/ 12/ 13 1014.0R
DIAMOND SHLS NC  1150   82 83  300/  8/  8 1013.8R   3/10   3/10
CAPE LOOKOUT NC  1100   80     300/  7/  9 1013.3R
$$




USA.gov is the U.S. government's official web portal to all federal, state and local government web resources and services.